EW6902 Weather Reports


time (UTC)temp
C
wind
direction
speed
KPH
gust
KPH
rain 1hr
cm
rain 24hr
cm
rain mn
cm
humidity
%
barometer
mb
20260508125503 12 0 0.0 3.2 0.00 0.15 0.00 85 1016.6
20260508125215 11 0 0.0 3.2 0.00 0.15 0.00 85 1016.5
20260508124503 11 0 0.0 0.0 0.00 0.15 0.00 89 1016.4
20260508124003 11 0 0.0 0.0 0.00 0.15 0.00 89 1016.3
20260508123503 11 0 0.0 0.0 0.00 0.15 0.00 90 1016.4
20260508123003 10 0 0.0 0.0 0.00 0.18 0.00 91 1016.3
20260508122503 10 0 0.0 0.0 0.00 0.20 0.00 92 1016.3
20260508122213 10 0 0.0 0.0 0.00 0.20 0.00 92 1016.3
20260508121716 10 0 0.0 0.0 0.00 0.25 0.00 92 1016.3
20260508121003 10 0 0.0 0.0 0.00 0.25 0.00 93 1016.2
20260508120503 9 0 0.0 0.0 0.00 0.28 0.00 93 1016.2
20260508120004 9 0 0.0 0.0 0.00 0.30 0.00 93 1016.1
20260508115503 9 0 0.0 0.0 0.00 0.30 0.00 93 1016.0
20260508115216 9 0 0.0 0.0 0.00 0.30 0.00 93 1016.0
20260508114503 8 0 0.0 0.0 0.00 0.30 0.00 93 1015.9
20260508114217 8 0 0.0 0.0 0.00 0.30 0.00 93 1015.8
20260508113715 8 0 0.0 0.0 0.00 0.30 0.00 93 1015.8
20260508113213 8 0 0.0 0.0 0.00 0.30 0.00 93 1015.7
20260508112503 8 0 0.0 0.0 0.00 0.30 0.00 92 1015.6
20260508112004 8 0 0.0 0.0 0.00 0.30 0.00 93 1015.6
20260508111503 8 0 0.0 0.0 0.00 0.30 0.00 93 1015.5
20260508111003 8 0 0.0 0.0 0.00 0.33 0.00 92 1015.4
20260508110712 8 0 0.0 0.0 0.00 0.33 0.00 92 1015.4
20260508110003 8 0 0.0 0.0 0.00 0.33 0.00 92 1015.3
20260508105503 8 0 0.0 0.0 0.00 0.33 0.00 92 1015.1
20260508105003 8 0 0.0 0.0 0.00 0.36 0.00 92 1015.1
20260508104504 8 0 0.0 0.0 0.00 0.36 0.00 92 1015.0
20260508104004 8 0 0.0 0.0 0.00 0.36 0.00 92 1014.8
20260508103503 8 0 0.0 0.0 0.00 0.36 0.00 92 1014.6
20260508103003 8 0 0.0 0.0 0.00 0.36 0.00 92 1014.6
20260508102503 8 0 0.0 0.0 0.00 0.36 0.00 92 1014.5
20260508102003 8 0 0.0 0.0 0.00 0.36 0.00 92 1014.4
20260508101503 8 0 0.0 0.0 0.00 0.36 0.00 92 1014.4
20260508101003 8 0 0.0 0.0 0.00 0.36 0.00 92 1014.4
20260508100713 8 0 0.0 0.0 0.00 0.36 0.00 92 1014.3
20260508100004 8 0 0.0 0.0 0.00 0.36 0.00 92 1014.2
20260508095503 9 0 0.0 0.0 0.00 0.36 0.00 92 1014.3
20260508095003 9 0 0.0 0.0 0.00 0.36 0.00 92 1014.2
20260508094503 9 0 0.0 0.0 0.00 0.36 0.00 92 1014.1
20260508094003 9 0 0.0 0.0 0.00 0.36 0.00 92 1014.0
20260508093503 9 0 0.0 0.0 0.00 0.36 0.00 92 1014.0
20260508093003 9 0 0.0 0.0 0.00 0.36 0.00 92 1014.0
20260508092503 9 0 0.0 0.0 0.00 0.36 0.00 92 1014.0
20260508092003 9 0 0.0 0.0 0.00 0.36 0.00 92 1014.0
20260508091503 9 0 0.0 0.0 0.00 0.38 0.00 92 1014.0
20260508091003 9 0 0.0 0.0 0.00 0.38 0.00 92 1013.9
20260508090503 9 0 0.0 0.0 0.00 0.38 0.00 92 1013.9
20260508090004 9 0 0.0 0.0 0.00 0.38 0.00 92 1013.9
20260508085503 9 0 0.0 0.0 0.00 0.38 0.00 92 1013.8
20260508085003 9 0 0.0 0.0 0.00 0.41 0.00 92 1013.8
20260508084503 9 0 0.0 0.0 0.00 0.41 0.00 92 1013.7
20260508084003 9 0 0.0 0.0 0.00 0.41 0.00 92 1013.7
20260508083503 9 0 0.0 0.0 0.00 0.41 0.00 92 1013.7
20260508083215 9 0 0.0 0.0 0.00 0.41 0.00 92 1013.7
20260508082503 10 0 0.0 0.0 0.00 0.41 0.00 92 1013.8
20260508082004 10 0 0.0 0.0 0.00 0.41 0.00 92 1013.7
20260508081504 10 0 0.0 0.0 0.00 0.41 0.00 92 1013.7
20260508081003 10 0 0.0 0.0 0.00 0.41 0.00 92 1013.7
20260508080503 10 0 0.0 0.0 0.00 0.41 0.00 92 1013.6
20260508080218 10 0 0.0 0.0 0.00 0.41 0.00 92 1013.5
20260508075716 10 0 0.0 0.0 0.00 0.41 0.00 92 1013.4
20260508075003 10 0 0.0 0.0 0.00 0.41 0.00 92 1013.4
20260508074716 10 0 0.0 0.0 0.00 0.41 0.00 92 1013.4
20260508074003 10 0 0.0 0.0 0.00 0.41 0.00 92 1013.4
20260508073717 10 0 0.0 0.0 0.00 0.41 0.00 92 1013.4
20260508073003 10 0 0.0 0.0 0.00 0.41 0.00 92 1013.3
20260508072713 10 0 0.0 0.0 0.00 0.41 0.00 92 1013.3
20260508072004 10 0 0.0 0.0 0.00 0.43 0.00 92 1013.2
20260508071503 10 0 0.0 0.0 0.00 0.43 0.00 92 1013.2
20260508071003 10 0 0.0 0.0 0.00 0.46 0.00 92 1013.2
20260508070503 10 0 0.0 0.0 0.00 0.46 0.00 91 1013.2
20260508070213 10 0 0.0 0.0 0.00 0.46 0.00 91 1013.1
20260508065503 10 0 0.0 0.0 0.00 0.46 0.00 92 1013.1
20260508065003 10 0 0.0 0.0 0.00 0.46 0.00 92 1013.1
20260508064504 10 0 0.0 0.0 0.00 0.48 0.00 92 1013.0
20260508064004 11 0 0.0 0.0 0.00 0.48 0.00 92 1012.9
20260508063503 11 0 0.0 0.0 0.00 0.48 0.00 92 1013.0
20260508063003 11 0 0.0 0.0 0.00 0.51 0.00 92 1012.9
20260508062504 11 0 0.0 0.0 0.00 0.51 0.00 92 1012.9
20260508062003 11 0 0.0 0.0 0.00 0.51 0.00 92 1013.1
20260508061715 11 0 0.0 0.0 0.00 0.53 0.00 92 1013.0
20260508061003 11 0 0.0 0.0 0.00 0.56 0.00 92 1013.1
20260508060503 11 0 0.0 0.0 0.00 0.61 0.00 92 1013.1
20260508060004 11 0 0.0 0.0 0.00 0.61 0.00 91 1013.1
20260508055504 11 0 0.0 0.0 0.00 0.64 0.00 92 1013.1
20260508055003 11 0 0.0 0.0 0.00 0.69 0.00 92 1013.1
20260508054503 11 0 0.0 0.0 0.00 0.71 0.00 91 1013.1
20260508054003 11 0 0.0 0.0 0.00 0.71 0.00 91 1013.0
20260508053503 11 0 0.0 0.0 0.00 0.71 0.00 92 1013.0
20260508053004 11 0 0.0 0.0 0.00 0.74 0.00 92 1012.9
20260508052503 11 0 0.0 0.0 0.00 0.76 0.00 92 1012.9
20260508052217 11 0 0.0 0.0 0.00 0.76 0.00 92 1012.9
20260508051503 11 0 0.0 0.0 0.00 0.84 0.00 91 1012.8
20260508051213 11 0 0.0 0.0 0.00 0.89 0.00 92 1012.9
20260508050503 12 0 0.0 0.0 0.00 0.91 0.00 92 1012.9
20260508050004 12 0 0.0 0.0 0.00 0.91 0.00 92 1012.8
20260508045503 12 0 0.0 0.0 0.00 0.91 0.00 91 1012.8
20260508045003 12 0 0.0 0.0 0.00 0.91 0.00 91 1012.7
20260508044504 12 0 0.0 0.0 0.00 0.91 0.00 91 1012.8
20260508044003 12 0 0.0 0.0 0.00 0.91 0.00 91 1012.6
20260508043714 12 0 0.0 0.0 0.00 0.91 0.00 91 1012.6
20260508043217 12 0 0.0 0.0 0.00 0.91 0.00 91 1012.6
20260508042503 12 0 0.0 0.0 0.00 0.91 0.00 92 1012.6
20260508042003 12 0 0.0 0.0 0.00 0.91 0.00 92 1012.6
20260508041504 12 0 0.0 0.0 0.00 0.91 0.00 92 1012.6
20260508041003 12 0 0.0 0.0 0.00 0.91 0.00 91 1012.5
20260508040503 12 0 0.0 0.0 0.00 0.91 0.00 91 1012.5
20260508040016 12 0 0.0 0.0 0.00 0.91 0.00 91 1012.4
20260508035503 12 0 0.0 0.0 0.00 0.91 0.91 91 1012.4
20260508035003 12 0 0.0 0.0 0.00 0.91 0.91 92 1012.4
20260508034504 12 0 0.0 0.0 0.00 0.91 0.91 91 1012.4
20260508034003 12 0 0.0 0.0 0.00 0.91 0.91 91 1012.3
20260508033503 12 0 0.0 0.0 0.00 0.94 0.91 91 1012.3
20260508033003 13 0 0.0 0.0 0.00 0.97 0.91 92 1012.5
20260508032503 13 0 0.0 0.0 0.00 0.97 0.91 91 1012.6
20260508032004 13 0 0.0 0.0 0.00 0.99 0.91 91 1012.5
20260508031504 13 0 0.0 0.0 0.00 1.02 0.91 91 1012.5
20260508031003 13 0 0.0 0.0 0.00 1.02 0.91 91 1012.4
20260508030503 13 0 0.0 0.0 0.00 1.02 0.91 91 1012.3
20260508030004 13 0 0.0 0.0 0.00 1.04 0.91 91 1012.2
20260508025503 13 0 0.0 0.0 0.00 1.09 0.91 91 1012.3
20260508025003 13 0 0.0 0.0 0.00 1.19 0.91 91 1012.2
20260508024503 13 0 0.0 0.0 0.00 1.27 0.91 91 1012.2
20260508024004 13 0 0.0 0.0 0.00 1.30 0.91 91 1012.0
20260508023504 13 0 0.0 0.0 0.00 1.32 0.91 91 1012.0
20260508023213 13 0 0.0 0.0 0.00 1.35 0.91 91 1012.0
20260508022503 13 0 0.0 0.0 0.00 1.37 0.91 91 1012.0
20260508022003 13 0 0.0 0.0 0.00 1.37 0.91 91 1011.9
20260508021503 13 0 0.0 0.0 0.00 1.37 0.91 91 1011.8
20260508021003 13 0 0.0 0.0 0.00 1.40 0.91 90 1011.7
20260508020503 13 0 0.0 0.0 0.00 1.42 0.91 90 1011.6
20260508020003 13 0 0.0 0.0 0.00 1.45 0.91 90 1011.5
20260508015503 13 0 0.0 0.0 0.00 1.47 0.91 90 1011.6
20260508015003 14 0 0.0 0.0 0.00 1.50 0.91 90 1011.5
20260508014504 14 0 0.0 0.0 0.00 1.55 0.91 90 1011.3
20260508014213 14 0 0.0 0.0 0.00 1.57 0.91 91 1011.3
20260508013504 14 0 0.0 0.0 0.00 1.63 0.91 91 1011.3
20260508013004 14 0 0.0 0.0 0.00 1.65 0.91 90 1011.3
20260508012717 14 0 0.0 0.0 0.00 1.68 0.91 90 1011.3
20260508012215 14 0 0.0 0.0 0.00 1.70 0.91 90 1011.1
20260508011503 14 0 0.0 0.0 0.00 1.73 0.91 90 1010.8
20260508011004 14 0 0.0 0.0 0.00 1.75 0.91 89 1010.6
20260508010503 14 0 0.0 0.0 0.00 1.75 0.91 90 1010.5
20260508010003 14 0 0.0 0.0 0.00 1.75 0.91 89 1010.4
20260508005503 14 0 0.0 0.0 0.00 1.78 0.91 89 1010.5
20260508005003 14 0 0.0 0.0 0.00 1.80 0.91 89 1010.4
20260508004503 15 0 0.0 0.0 0.00 1.80 0.91 89 1010.2
20260508004003 15 0 0.0 0.0 0.00 1.80 0.91 89 1010.0
20260508003503 15 0 0.0 0.0 0.00 1.83 0.91 88 1009.7
20260508003004 15 0 0.0 0.0 0.00 1.85 0.91 88 1009.7
20260508002503 15 0 0.0 0.0 0.00 1.85 0.91 88 1009.7
20260508002003 15 0 0.0 0.0 0.00 1.88 0.91 88 1009.6
20260508001504 15 0 0.0 0.0 0.00 1.88 0.91 88 1009.7
20260508001003 15 0 0.0 0.0 0.00 1.88 0.91 88 1009.4
20260508000503 15 0 0.0 1.6 0.00 1.88 0.91 88 1009.5
20260508000003 15 0 0.0 6.4 0.00 1.88 0.91 88 1009.5
20260507235503 15 0 0.0 6.4 0.00 1.91 0.91 88 1009.2
20260507235003 15 0 0.0 1.6 0.00 1.91 0.91 88 1009.1
20260507234503 15 0 0.0 0.0 0.00 1.91 0.91 88 1009.1
20260507234004 15 0 0.0 0.0 0.00 1.91 0.91 88 1009.1
20260507233503 15 0 0.0 1.6 0.00 1.91 0.91 88 1009.0
20260507233004 15 0 0.0 1.6 0.00 1.91 0.91 88 1009.0
20260507232503 15 0 0.0 0.0 0.00 1.91 0.91 88 1009.0
20260507232216 15 0 0.0 6.4 0.00 1.91 0.91 88 1009.0
20260507231714 15 0 0.0 6.4 0.00 1.91 0.91 87 1008.8
20260507231217 15 0 0.0 16.1 0.00 1.91 0.91 87 1008.7
20260507230503 15 0 0.0 12.9 0.00 1.91 0.91 88 1008.6
20260507230004 15 0 0.0 12.9 0.00 1.91 0.91 88 1008.7
20260507225503 15 0 0.0 0.0 0.00 1.91 0.91 88 1008.7
20260507225003 15 0 0.0 0.0 0.03 1.91 0.91 88 1008.6
20260507224504 15 0 0.0 1.6 0.03 1.91 0.91 88 1008.5
20260507224003 15 0 0.0 6.4 0.03 1.91 0.91 88 1008.3
20260507223713 15 0 0.0 6.4 0.03 1.91 0.91 88 1008.2
20260507223003 15 0 0.0 0.0 0.05 1.91 0.91 88 1008.3
20260507222503 16 0 0.0 0.0 0.05 1.91 0.91 87 1008.6
20260507222217 16 0 0.0 0.0 0.05 1.91 0.91 87 1008.7
20260507221503 16 0 0.0 1.6 0.05 1.91 0.91 87 1008.4
20260507221003 16 0 0.0 8.0 0.05 1.91 0.91 88 1008.1
20260507220503 16 332 1.6 8.0 0.05 1.91 0.91 87 1007.6
20260507220003 16 339 1.6 9.7 0.05 1.91 0.91 87 1008.0
20260507215503 16 0 0.0 9.7 0.05 1.91 0.91 86 1007.6
20260507215003 16 0 0.0 16.1 0.03 1.88 0.89 86 1007.6
20260507214503 16 349 1.6 16.1 0.03 1.88 0.89 85 1007.5
20260507214003 17 348 1.6 12.9 0.03 1.88 0.89 84 1006.9
20260507213503 17 360 1.6 12.9 0.03 1.88 0.89 84 1006.7
20260507213004 17 352 1.6 16.1 0.00 1.85 0.86 84 1007.3
20260507212503 17 0 0.0 16.1 0.00 1.85 0.86 85 1006.7
20260507212003 17 0 0.0 1.6 0.00 1.85 0.86 85 1006.7
20260507211503 17 0 0.0 14.5 0.00 1.85 0.86 84 1006.7
20260507211003 18 0 0.0 14.5 0.00 1.85 0.86 83 1006.6
20260507210503 18 0 0.0 3.2 0.00 1.85 0.86 83 1006.5
20260507210004 18 0 0.0 3.2 0.00 1.85 0.86 82 1006.5
20260507205503 18 0 0.0 6.4 0.00 1.85 0.86 80 1006.4
20260507205003 19 0 0.0 14.5 0.00 1.85 0.86 80 1006.6
20260507204504 19 0 0.0 14.5 0.00 1.85 0.86 78 1006.4
20260507204003 20 0 0.0 19.3 0.00 1.88 0.86 75 1006.7
20260507203503 22 0 0.0 19.3 0.00 1.88 0.86 74 1006.6
20260507203003 23 0 0.0 9.7 0.00 1.88 0.86 67 1006.6
20260507202503 25 0 0.0 0.0 0.00 1.88 0.86 69 1006.0
20260507202004 25 0 0.0 0.0 0.00 1.88 0.86 70 1005.7
20260507201503 25 0 0.0 1.6 0.00 1.88 0.86 71 1005.6
20260507201003 25 0 0.0 1.6 0.00 1.88 0.86 68 1005.7
20260507200504 25 0 0.0 0.0 0.00 1.88 0.86 68 1005.8
20260507200003 25 0 0.0 0.0 0.00 1.88 0.86 67 1005.9
20260507195503 25 0 0.0 3.2 0.00 1.88 0.86 64 1006.0
20260507195216 25 0 0.0 3.2 0.00 1.88 0.86 66 1006.0
20260507194714 25 0 0.0 3.2 0.00 1.88 0.86 65 1005.9
20260507194217 25 0 0.0 0.0 0.00 1.88 0.86 69 1006.1
20260507193715 25 0 0.0 1.6 0.00 1.88 0.86 67 1006.2
20260507193003 25 0 0.0 1.6 0.00 1.88 0.86 67 1006.3
20260507192716 25 0 0.0 0.0 0.00 1.88 0.86 69 1006.3
20260507192003 24 0 0.0 0.0 0.00 1.88 0.86 73 1006.4
20260507191503 24 0 0.0 4.8 0.00 1.88 0.86 72 1006.5
20260507191003 24 0 0.0 4.8 0.00 1.88 0.86 72 1006.4
20260507190503 24 0 0.0 12.9 0.00 1.88 0.86 74 1006.5
20260507190005 24 0 0.0 12.9 0.00 1.88 0.86 75 1006.5
20260507185504 23 0 0.0 0.0 0.00 1.88 0.86 75 1006.7
20260507185003 23 0 0.0 0.0 0.00 1.88 0.86 78 1006.7
20260507184504 23 0 0.0 0.0 0.00 1.88 0.86 73 1006.6
20260507184004 23 0 0.0 0.0 0.00 1.88 0.86 77 1006.7
20260507183504 23 0 0.0 1.6 0.00 1.88 0.86 77 1006.7
20260507183003 23 0 0.0 1.6 0.00 1.88 0.86 79 1006.7
20260507182503 23 0 0.0 0.0 0.00 1.88 0.86 79 1006.6
20260507182003 23 0 0.0 1.6 0.00 1.88 0.86 82 1006.6
20260507181503 22 0 0.0 1.6 0.00 1.88 0.86 82 1006.7
20260507181003 22 0 0.0 1.6 0.00 1.88 0.86 81 1006.9
20260507180503 22 0 0.0 1.6 0.00 1.88 0.86 82 1007.1
20260507180004 22 0 0.0 1.6 0.00 1.88 0.86 85 1007.2
20260507175503 22 0 0.0 1.6 0.00 1.88 0.86 83 1007.3
20260507175003 22 0 0.0 0.0 0.00 1.88 0.86 85 1007.5
20260507174503 22 0 0.0 0.0 0.00 1.88 0.86 85 1007.4
20260507174003 21 0 0.0 0.0 0.00 1.88 0.86 88 1007.5
20260507173716 21 0 0.0 0.0 0.00 1.88 0.86 88 1007.5
20260507173004 21 0 0.0 0.0 0.00 1.91 0.86 90 1007.6
20260507172503 20 0 0.0 0.0 0.00 1.93 0.86 90 1007.3
20260507172004 20 0 0.0 0.0 0.00 1.93 0.86 90 1007.4
20260507171503 20 0 0.0 0.0 0.00 1.96 0.86 89 1007.6
20260507171003 20 0 0.0 0.0 0.00 1.98 0.86 89 1007.8
20260507170503 20 0 0.0 0.0 0.00 2.03 0.86 89 1008.0
20260507170217 20 0 0.0 0.0 0.00 2.06 0.86 89 1008.0
20260507165503 20 0 0.0 0.0 0.00 2.08 0.86 90 1007.8
20260507165003 20 0 0.0 0.0 0.00 2.08 0.86 91 1007.6
20260507164504 20 0 0.0 0.0 0.00 2.08 0.86 92 1007.6
20260507164003 20 0 0.0 0.0 0.00 2.08 0.86 91 1007.8
20260507163503 20 0 0.0 1.6 0.00 2.08 0.86 91 1007.8
20260507163003 20 0 0.0 1.6 0.00 2.08 0.86 91 1007.8
20260507162503 20 0 0.0 0.0 0.00 2.08 0.86 91 1007.5
20260507162216 20 0 0.0 1.6 0.00 2.08 0.86 92 1007.7
20260507161714 20 0 0.0 1.6 0.00 2.08 0.86 91 1008.0
20260507161003 20 0 0.0 0.0 0.00 2.08 0.86 92 1008.5
20260507160504 20 0 0.0 0.0 0.00 2.08 0.86 92 1007.8
20260507160218 20 0 0.0 0.0 0.00 2.08 0.86 93 1007.4
20260507155504 20 0 0.0 0.0 0.03 2.08 0.86 92 1007.5
20260507155213 20 0 0.0 0.0 0.03 2.08 0.86 92 1007.7
20260507154503 20 0 0.0 0.0 0.03 2.08 0.86 93 1007.4
20260507154003 20 0 0.0 0.0 0.03 2.08 0.86 93 1007.2
20260507153504 19 0 0.0 0.0 0.05 2.08 0.86 93 1007.1
20260507153003 19 0 0.0 0.0 0.05 2.08 0.86 93 1006.7
20260507152503 19 0 0.0 0.0 0.05 2.08 0.86 93 1007.2
20260507152216 19 0 0.0 0.0 0.05 2.08 0.86 93 1007.4
20260507151714 18 0 0.0 3.2 0.05 2.08 0.86 93 1007.6
20260507151004 19 0 0.0 0.0 0.05 2.08 0.86 93 1007.9
20260507150503 18 0 0.0 0.0 0.05 2.08 0.86 93 1007.7
20260507150004 18 0 0.0 0.0 0.05 2.08 0.86 93 1007.6
20260507145503 18 0 0.0 0.0 0.05 2.06 0.84 93 1008.1
20260507145214 18 0 0.0 0.0 0.05 2.06 0.84 93 1008.2
20260507144503 18 0 0.0 0.0 0.05 2.06 0.84 93 1008.7
20260507144215 18 0 0.0 0.0 0.05 2.06 0.84 93 1008.8
20260507143503 18 0 0.0 0.0 0.03 2.03 0.81 93 1009.0
20260507143004 18 0 0.0 0.0 0.03 2.03 0.81 93 1009.2
20260507142503 18 0 0.0 0.0 0.03 2.03 0.81 93 1008.9
20260507142217 18 0 0.0 0.0 0.03 2.03 0.81 93 1008.6
20260507141503 18 0 0.0 0.0 0.03 2.03 0.81 93 1008.3
20260507141003 18 0 0.0 0.0 0.03 2.03 0.81 93 1008.4
20260507140503 18 0 0.0 0.0 0.03 2.03 0.81 93 1008.4
20260507140004 18 0 0.0 0.0 0.05 2.03 0.81 93 1008.0
20260507135503 18 0 0.0 0.0 0.03 2.01 0.79 93 1008.1
20260507135003 18 0 0.0 0.0 0.03 2.01 0.79 94 1008.0
20260507134503 18 0 0.0 0.0 0.03 2.01 0.79 93 1007.9
20260507134003 18 0 0.0 0.0 0.03 2.01 0.79 93 1008.0
20260507133503 18 0 0.0 0.0 0.03 2.01 0.79 93 1007.8
20260507133217 18 0 0.0 0.0 0.05 2.01 0.79 93 1007.8
20260507132503 18 0 0.0 0.0 0.08 2.01 0.79 93 1007.6
20260507132003 18 0 0.0 0.0 0.08 2.01 0.79 93 1007.8
20260507131504 18 0 0.0 0.0 0.13 2.01 0.79 93 1008.1
20260507131003 18 0 0.0 0.0 0.13 2.01 0.79 93 1008.0
20260507130503 18 0 0.0 0.0 0.15 2.01 0.79 93 1008.2
20260507130214 18 0 0.0 0.0 0.13 1.98 0.76 93 1008.2